FENGYUN 1C DEB

Satellite information

Favourite Embed

Satellite Type and Status

DEBRISIN ORBIT

Key statistics

Satellite FENGYUN 1C DEB at a glance.

Uptime

9714

Days in orbit

Revolutions

≈ 14.1

Per day

Orbit

SSO

Sun Synchronous Orbit

Inclination

98.8

Latest

Satellite identification and parameters

Extended collection of information and parameters for FENGYUN 1C DEB.

Object identification

Identified? True

Debris? True

Object name: FENGYUN 1C DEB

International designator: 1999-025EGK

Object number (NORAD): 37417

Object ID (CCSDS): 37417

Country: PEOPLES REPUBLIC OF CHINA (PRC)

Current information (Y/N): Y

RCS size: SMALL

Orbital parameters

Period: 102.318 minutes

Inclination: 98.7964 deg

SMA: 7246.488 km

Apoapsis: 925.038 km

Periapsis: 811.668 km

RAAN: 334.2107 deg

Eccentricy: 0.00782242

Argument of periapsis: 276.2736 deg

Mean anomaly: 82.9527 deg

Mean motion: 14.07380066 rev/day

Mean motion (dot): 0.00001072 rev/day2

B* drag term: 0.00064539005 1/REarth

Two-line elements (TLE)

Creation date: Dec. 7, 2025, 5:20 p.m.

Reference frame: TEME

Reference center: EARTH

Epoch: Dec. 7, 2025, 6:30 a.m. UTC

TLE line 0: 0 FENGYUN 1C DEB

TLE line 1: 1 37417U 99025EGK 25341.27084062 .00001072 00000-0 64539-3 0 9991

TLE line 2: 2 37417 98.7964 334.2107 0078224 276.2736 82.9527 14.07380066682737

Live tracking on map

Real-time ground track for satellite FENGYUN 1C DEB.

In-orbit conjunctions

A list of the most updated potential collisions computed for object FENGYUN 1C DEB.

Target Orbit TCA Probability of collision Miss distance Type
METEOR 2-8 DEB LEO 2025-03-08 03:36:31 0.0001170864 75.0 (m) DEBRIS
CZ-2C DEB SSO 2024-09-25 07:35:57 0.001404625 151.0 (m) DEBRIS
IRS B3 SSO 2024-07-20 02:54:31 0.0001276603 729.0 (m) PAYLOAD

Associated space launch

Chinese polar orbiting meteorological satellite

FENGYUN 1C DEB was lifted into orbit during the mission ‘Long March 4B | Feng Yun 1C’, on board a Long March 4B space rocket.

The launch took place on May 10, 1999, 1:33 a.m. from Launch Complex 7.

For more information about the launch, click the button.

Launch to space Long March 4B | Feng Yun 1C
Long March 4B | Feng Yun 1C

Agency: N/A

Status: Launch Successful

Launch date: May 10, 1999, 1:33 a.m. UTC

Rocket: Long March 4B

Launch pad: Launch Complex 7

Location: Taiyuan Satellite Launch Center, People's Republic of China

...

Latest news about this satellite

There are no fresh news available about this satellite. Check back as we update our databases every day.


Newsletter sign-up

Weekly statistics, charts and insights to help you stay on top of the space industry.